User: anonymous   Login
Location: Unspecified
(0.0000°N, 0.0000°E)
Time: 09:53:48
(UTC+00:00)
Language:

Landsat 7 - Orbit

View from above orbital plane
View from above orbital plane
View from above satellite
View from above satellite

Ground track
Ground track

The orbit data is extracted from the following two-line orbital elements,

1 25682U 99020A   15241.75050436 -.00000008  00000-0  81868-5 0  9991
2 25682 098.2140 310.6874 0001056 087.3853 272.7455 14.57113364870859
Epoch (UTC): 29 August 2015 18:00:43
Eccentricity: 0.0001056
inclination: 98.2140°
perigee height: 702 km
apogee height: 703 km
right ascension of ascending node: 310.6874°
argument of perigee: 87.3853°
revolutions per day: 14.57113364
mean anomaly at epoch: 272.7455°
orbit number at epoch: 87085

The dashed part of the orbit path shows where the satellite is in the earth's shadow,  

DLR